Tracking 29892 objects as of 21-Nov-2024
HD Live streaming from Space Station
objects crossing your sky now

STARLINK-31123

Track STARLINK-31123 now!
10-day predictions
STARLINK-31123 is classified as:


NORAD ID: 58775
Int'l Code: 2024-011L
Perigee: 557.8 km
Apogee: 559.9 km
Inclination: 53.2 °
Period: 95.7 minutes
Semi major axis: 6929 km
RCS: Unknown
Launch date: January 14, 2024
Source: United States (US)
Launch site: AIR FORCE WESTERN TEST RANGE (AFWTR)
Your satellite tracking list
Your tracking list is empty




NASA's NSSDC Master Catalog

Two Line Element Set (TLE):
1 58775U 24011L   24325.57585264  .00000044  00000-0  22439-4 0  9990
2 58775  53.1617  14.4474 0001471  96.5514 263.5643 15.04932115 48141
Source of the keplerian elements: AFSPC